| time (UTC) | temp F | wind direction | speed knots | gust knots | rain 1hr in | rain 24hr in | rain mn in | humidity % | barometer mb |
| 20260506141423 | 43 | 340 | 3.5 | 7.8 | 0.00 | 0.00 | 0.00 | 54 | 1010.3 |
| 20260506140925 | 43 | 8 | 4.3 | 7.8 | 0.00 | 0.00 | 0.00 | 53 | 1010.3 |
| 20260506140423 | 43 | 18 | 1.7 | 7.8 | 0.00 | 0.00 | 0.00 | 54 | 1010.3 |
| 20260506135922 | 43 | 9 | 1.7 | 8.7 | 0.00 | 0.00 | 0.00 | 53 | 1010.3 |
| 20260506135425 | 43 | 327 | 2.6 | 8.7 | 0.00 | 0.00 | 0.00 | 53 | 1010.3 |
| 20260506134422 | 42 | 357 | 2.6 | 9.6 | 0.00 | 0.00 | 0.00 | 59 | 1010.2 |
| 20260506133922 | 42 | 8 | 1.7 | 7.8 | 0.00 | 0.00 | 0.00 | 58 | 1010.2 |
| 20260506133420 | 41 | 275 | 1.7 | 9.6 | 0.00 | 0.00 | 0.00 | 59 | 1010.2 |
| 20260506132920 | 41 | 293 | 4.3 | 9.6 | 0.00 | 0.00 | 0.00 | 59 | 1010.2 |
| 20260506132420 | 41 | 299 | 4.3 | 9.6 | 0.00 | 0.00 | 0.00 | 59 | 1010.2 |
| 20260506131920 | 41 | 317 | 3.5 | 7.8 | 0.00 | 0.00 | 0.00 | 58 | 1010.2 |
| 20260506131652 | 41 | 300 | 3.5 | 7.8 | 0.00 | 0.00 | 0.00 | 61 | 1010.1 |
| 20260506130923 | 42 | 329 | 1.7 | 7.8 | 0.00 | 0.00 | 0.00 | 62 | 1010.1 |
| 20260506130420 | 41 | 274 | 7.8 | 9.6 | 0.00 | 0.00 | 0.00 | 61 | 1010.2 |
| 20260506125920 | 41 | 292 | 6.1 | 9.6 | 0.00 | 0.00 | 0.00 | 63 | 1010.1 |
| 20260506125419 | 41 | 340 | 2.6 | 9.6 | 0.00 | 0.00 | 0.00 | 63 | 1010.1 |
| 20260506124915 | 40 | 358 | 6.1 | 9.6 | 0.00 | 0.00 | 0.00 | 65 | 1010.0 |
| 20260506124644 | 40 | 319 | 4.3 | 8.7 | 0.00 | 0.00 | 0.00 | 67 | 1010.0 |
| 20260506124143 | 40 | 286 | 4.3 | 7.8 | 0.00 | 0.00 | 0.00 | 67 | 1010.0 |
| 20260506123414 | 39 | 247 | 5.2 | 9.6 | 0.00 | 0.00 | 0.00 | 69 | 1010.0 |
| 20260506122915 | 39 | 299 | 3.5 | 9.6 | 0.00 | 0.00 | 0.00 | 69 | 1010.0 |
| 20260506122638 | 39 | 259 | 2.6 | 8.7 | 0.00 | 0.00 | 0.00 | 70 | 1010.1 |
| 20260506121912 | 38 | 262 | 6.1 | 8.7 | 0.00 | 0.00 | 0.00 | 71 | 1010.0 |
| 20260506121412 | 38 | 257 | 5.2 | 8.7 | 0.00 | 0.00 | 0.00 | 74 | 1010.0 |
| 20260506121139 | 37 | 278 | 2.6 | 6.1 | 0.00 | 0.00 | 0.00 | 76 | 1009.9 |
| 20260506120412 | 37 | 274 | 4.3 | 6.1 | 0.00 | 0.00 | 0.00 | 77 | 1010.0 |
| 20260506115912 | 36 | 295 | 3.5 | 6.1 | 0.00 | 0.00 | 0.00 | 78 | 1009.9 |
| 20260506115415 | 36 | 258 | 5.2 | 6.1 | 0.00 | 0.00 | 0.00 | 79 | 1009.8 |
| 20260506115139 | 36 | 258 | 2.6 | 5.2 | 0.00 | 0.00 | 0.00 | 80 | 1009.8 |
| 20260506114411 | 35 | 262 | 3.5 | 5.2 | 0.00 | 0.00 | 0.00 | 81 | 1009.7 |
| 20260506114136 | 35 | 268 | 2.6 | 4.3 | 0.00 | 0.00 | 0.00 | 83 | 1009.7 |
| 20260506113655 | 34 | 254 | 2.6 | 5.2 | 0.00 | 0.00 | 0.00 | 83 | 1009.6 |
| 20260506112909 | 34 | 274 | 2.6 | 5.2 | 0.00 | 0.00 | 0.00 | 84 | 1009.6 |
| 20260506112411 | 33 | 278 | 2.6 | 4.3 | 0.00 | 0.00 | 0.00 | 85 | 1009.6 |
| 20260506111906 | 33 | 282 | 1.7 | 4.3 | 0.00 | 0.00 | 0.00 | 86 | 1009.4 |
| 20260506111405 | 32 | 278 | 2.6 | 4.3 | 0.00 | 0.00 | 0.00 | 87 | 1009.2 |
| 20260506110908 | 32 | 264 | 1.7 | 3.5 | 0.00 | 0.00 | 0.00 | 87 | 1009.0 |
| 20260506110404 | 31 | 268 | 1.7 | 3.5 | 0.00 | 0.00 | 0.00 | 88 | 1009.1 |
| 20260506110127 | 31 | 269 | 1.7 | 3.5 | 0.00 | 0.00 | 0.00 | 88 | 1009.0 |
| 20260506105403 | 31 | 288 | 1.7 | 3.5 | 0.00 | 0.00 | 0.00 | 88 | 1009.0 |
| 20260506104903 | 30 | 274 | 2.6 | 3.5 | 0.00 | 0.00 | 0.00 | 89 | 1009.0 |
| 20260506104404 | 30 | 271 | 1.7 | 3.5 | 0.00 | 0.00 | 0.00 | 89 | 1009.0 |
| 20260506103903 | 30 | 258 | 1.7 | 3.5 | 0.00 | 0.00 | 0.00 | 88 | 1008.9 |
| 20260506103402 | 29 | 261 | 1.7 | 3.5 | 0.00 | 0.00 | 0.00 | 88 | 1008.9 |
| 20260506102903 | 30 | 258 | 1.7 | 3.5 | 0.00 | 0.00 | 0.00 | 88 | 1009.0 |
| 20260506102405 | 30 | 251 | 1.7 | 2.6 | 0.00 | 0.00 | 0.00 | 88 | 1008.9 |
| 20260506101903 | 30 | 264 | 1.7 | 2.6 | 0.00 | 0.00 | 0.00 | 88 | 1008.8 |
| 20260506101401 | 30 | 265 | 1.7 | 3.5 | 0.00 | 0.00 | 0.00 | 88 | 1008.8 |
| 20260506100902 | 30 | 267 | 1.7 | 3.5 | 0.00 | 0.00 | 0.00 | 88 | 1008.9 |
| 20260506100400 | 30 | 272 | 1.7 | 2.6 | 0.00 | 0.00 | 0.00 | 87 | 1008.9 |
| 20260506095900 | 30 | 269 | 1.7 | 2.6 | 0.00 | 0.00 | 0.00 | 87 | 1008.9 |
| 20260506095626 | 30 | 268 | 1.7 | 2.6 | 0.00 | 0.00 | 0.00 | 87 | 1009.0 |
| 20260506094858 | 30 | 267 | 1.7 | 1.7 | 0.00 | 0.00 | 0.00 | 87 | 1009.0 |
| 20260506094357 | 30 | 272 | 0.9 | 2.6 | 0.00 | 0.00 | 0.00 | 87 | 1008.9 |
| 20260506093853 | 30 | 265 | 0.9 | 2.6 | 0.00 | 0.00 | 0.00 | 86 | 1008.9 |
| 20260506093354 | 31 | 265 | 0.9 | 2.6 | 0.00 | 0.00 | 0.00 | 86 | 1008.9 |
| 20260506092854 | 31 | 267 | 0.9 | 1.7 | 0.00 | 0.00 | 0.00 | 86 | 1008.9 |
| 20260506092616 | 31 | 264 | 0.9 | 2.6 | 0.00 | 0.00 | 0.00 | 86 | 1009.0 |
| 20260506091853 | 31 | 268 | 1.7 | 2.6 | 0.00 | 0.00 | 0.00 | 86 | 1008.9 |
| 20260506091352 | 31 | 272 | 0.9 | 2.6 | 0.00 | 0.00 | 0.00 | 86 | 1008.9 |
| 20260506090853 | 31 | 272 | 1.7 | 2.6 | 0.00 | 0.00 | 0.00 | 85 | 1008.8 |
| 20260506090352 | 31 | 271 | 0.9 | 1.7 | 0.00 | 0.00 | 0.00 | 85 | 1008.9 |
| 20260506090115 | 31 | 278 | 0.9 | 2.6 | 0.00 | 0.00 | 0.00 | 84 | 1008.8 |
| 20260506085620 | 31 | 261 | 0.9 | 2.6 | 0.00 | 0.00 | 0.00 | 84 | 1008.7 |
| 20260506084851 | 31 | 259 | 0.9 | 1.7 | 0.00 | 0.00 | 0.00 | 83 | 1008.7 |
| 20260506084352 | 31 | 248 | 0.0 | 1.7 | 0.00 | 0.00 | 0.00 | 83 | 1008.7 |
| 20260506083351 | 32 | 244 | 0.9 | 1.7 | 0.00 | 0.00 | 0.00 | 82 | 1008.7 |
| 20260506082849 | 32 | 243 | 0.0 | 1.7 | 0.00 | 0.00 | 0.00 | 81 | 1008.7 |
| 20260506082349 | 32 | 243 | 0.9 | 1.7 | 0.00 | 0.00 | 0.00 | 80 | 1008.7 |
| 20260506081849 | 33 | 244 | 0.9 | 1.7 | 0.00 | 0.00 | 0.00 | 80 | 1008.7 |
| 20260506081349 | 33 | 243 | 0.9 | 1.7 | 0.00 | 0.00 | 0.00 | 79 | 1008.7 |
| 20260506080849 | 33 | 243 | 0.9 | 2.6 | 0.00 | 0.00 | 0.00 | 78 | 1008.8 |
| 20260506080618 | 33 | 243 | 1.7 | 2.6 | 0.00 | 0.00 | 0.00 | 77 | 1008.8 |
| 20260506080110 | 34 | 241 | 1.7 | 2.6 | 0.00 | 0.00 | 0.00 | 76 | 1008.8 |
| 20260506072835 | 35 | 276 | 0.9 | 3.5 | 0.00 | 0.00 | 0.00 | 72 | 1008.8 |
| 20260506072333 | 36 | 300 | 0.9 | 3.5 | 0.00 | 0.00 | 0.00 | 72 | 1008.8 |
| 20260506071834 | 36 | 314 | 1.7 | 4.3 | 0.00 | 0.00 | 0.00 | 72 | 1008.8 |
| 20260506071334 | 36 | 320 | 1.7 | 4.3 | 0.00 | 0.00 | 0.00 | 73 | 1008.8 |
| 20260506070833 | 36 | 305 | 0.9 | 4.3 | 0.00 | 0.00 | 0.00 | 74 | 1008.9 |
| 20260506070333 | 37 | 286 | 0.9 | 5.2 | 0.00 | 0.00 | 0.00 | 75 | 1008.9 |
| 20260506062333 | 37 | 355 | 4.3 | 6.1 | 0.00 | 0.00 | 0.00 | 76 | 1008.6 |
| 20260506061833 | 37 | 337 | 2.6 | 6.1 | 0.00 | 0.00 | 0.00 | 76 | 1008.7 |
| 20260506061556 | 37 | 340 | 1.7 | 5.2 | 0.00 | 0.00 | 0.00 | 76 | 1008.8 |
| 20260506060833 | 37 | 305 | 2.6 | 5.2 | 0.00 | 0.00 | 0.00 | 77 | 1008.8 |
| 20260506060332 | 37 | 353 | 1.7 | 4.3 | 0.00 | 0.00 | 0.00 | 78 | 1008.8 |
| 20260506050833 | 37 | 314 | 0.0 | 3.5 | 0.00 | 0.00 | 0.00 | 78 | 1009.1 |
| 20260506050332 | 37 | 357 | 0.9 | 3.5 | 0.00 | 0.00 | 0.00 | 78 | 1009.1 |
| 20260506044834 | 37 | 310 | 0.9 | 2.6 | 0.00 | 0.00 | 0.00 | 79 | 1009.2 |
| 20260506044333 | 37 | 358 | 1.7 | 3.5 | 0.00 | 0.00 | 0.00 | 79 | 1009.1 |
| 20260506044101 | 37 | 353 | 0.9 | 3.5 | 0.00 | 0.00 | 0.00 | 79 | 1009.1 |
| 20260506043334 | 37 | 355 | 1.7 | 2.6 | 0.00 | 0.00 | 0.00 | 79 | 1009.1 |
| 20260506042835 | 37 | 348 | 1.7 | 4.3 | 0.00 | 0.00 | 0.00 | 79 | 1009.1 |
| 20260506042334 | 38 | 1 | 2.6 | 4.3 | 0.00 | 0.00 | 0.00 | 79 | 1009.1 |
| 20260506041849 | 38 | 24 | 1.7 | 5.2 | 0.00 | 0.00 | 0.00 | 79 | 1009.0 |
| 20260506041559 | 38 | 333 | 0.9 | 5.2 | 0.00 | 0.00 | 0.00 | 79 | 1008.9 |
| 20260506040832 | 38 | 32 | 1.7 | 4.3 | 0.00 | 0.00 | 0.00 | 79 | 1008.7 |
| 20260506040329 | 38 | 8 | 0.9 | 4.3 | 0.00 | 0.00 | 0.00 | 78 | 1008.7 |
| 20260506040105 | 38 | 54 | 1.7 | 5.2 | 0.00 | 0.00 | 0.00 | 78 | 1008.7 |
| 20260506035329 | 38 | 358 | 1.7 | 5.2 | 0.00 | 0.00 | 0.00 | 78 | 1008.8 |
| 20260506034829 | 38 | 351 | 2.6 | 5.2 | 0.00 | 0.00 | 0.00 | 79 | 1008.8 |
| 20260506034328 | 38 | 12 | 2.6 | 5.2 | 0.00 | 0.00 | 0.00 | 79 | 1008.7 |
| 20260506033825 | 38 | 322 | 1.7 | 6.1 | 0.00 | 0.00 | 0.00 | 80 | 1008.8 |
| 20260506033551 | 38 | 323 | 1.7 | 6.1 | 0.00 | 0.00 | 0.00 | 80 | 1008.7 |
| 20260506032826 | 38 | 341 | 2.6 | 5.2 | 0.00 | 0.00 | 0.00 | 80 | 1008.6 |
| 20260506032329 | 38 | 353 | 1.7 | 5.2 | 0.00 | 0.00 | 0.00 | 81 | 1008.6 |
| 20260506031323 | 38 | 344 | 1.7 | 5.2 | 0.00 | 0.00 | 0.00 | 81 | 1008.5 |
| 20260506030823 | 38 | 5 | 2.6 | 5.2 | 0.00 | 0.00 | 0.00 | 81 | 1008.5 |
| 20260506030324 | 38 | 345 | 1.7 | 5.2 | 0.00 | 0.00 | 0.00 | 81 | 1008.4 |
| 20260506030059 | 38 | 299 | 2.6 | 5.2 | 0.00 | 0.00 | 0.00 | 80 | 1008.4 |
| 20260506025326 | 38 | 345 | 1.7 | 4.3 | 0.00 | 0.00 | 0.00 | 80 | 1008.2 |
| 20260506024820 | 38 | 1 | 1.7 | 7.8 | 0.00 | 0.00 | 0.00 | 80 | 1008.3 |
| 20260506024318 | 38 | 336 | 3.5 | 7.8 | 0.00 | 0.00 | 0.00 | 80 | 1008.2 |
| 20260506024044 | 38 | 1 | 2.6 | 7.8 | 0.00 | 0.00 | 0.00 | 80 | 1008.2 |
| 20260506023321 | 38 | 354 | 2.6 | 6.1 | 0.00 | 0.00 | 0.00 | 81 | 1008.1 |
| 20260506022818 | 38 | 300 | 1.7 | 6.1 | 0.00 | 0.00 | 0.00 | 82 | 1008.1 |
| 20260506022319 | 38 | 317 | 3.5 | 6.1 | 0.00 | 0.00 | 0.00 | 82 | 1008.0 |
| 20260506021815 | 38 | 19 | 1.7 | 6.1 | 0.00 | 0.00 | 0.00 | 82 | 1008.0 |
| 20260506021315 | 38 | 19 | 1.7 | 7.8 | 0.00 | 0.00 | 0.00 | 82 | 1007.9 |
| 20260506020813 | 38 | 310 | 2.6 | 7.8 | 0.00 | 0.00 | 0.00 | 82 | 1007.7 |
| 20260506020543 | 39 | 343 | 3.5 | 7.8 | 0.00 | 0.00 | 0.00 | 82 | 1007.7 |
| 20260506020040 | 39 | 354 | 2.6 | 8.7 | 0.00 | 0.00 | 0.00 | 82 | 1007.6 |
| 20260506015314 | 39 | 7 | 1.7 | 8.7 | 0.00 | 0.00 | 0.00 | 82 | 1007.6 |
| 20260506014811 | 39 | 334 | 3.5 | 8.7 | 0.00 | 0.01 | 0.00 | 82 | 1007.5 |
| 20260506014311 | 39 | 357 | 3.5 | 8.7 | 0.00 | 0.01 | 0.00 | 81 | 1007.4 |
| 20260506013810 | 39 | 333 | 3.5 | 8.7 | 0.00 | 0.01 | 0.00 | 82 | 1007.3 |
| 20260506013537 | 39 | 337 | 1.7 | 8.7 | 0.00 | 0.01 | 0.00 | 82 | 1007.2 |
| 20260506012810 | 39 | 343 | 2.6 | 9.6 | 0.00 | 0.01 | 0.00 | 82 | 1007.1 |
| 20260506012536 | 39 | 320 | 3.5 | 9.6 | 0.00 | 0.01 | 0.00 | 82 | 1007.2 |
| 20260506011808 | 39 | 323 | 3.5 | 8.7 | 0.00 | 0.01 | 0.00 | 82 | 1007.2 |
| 20260506011307 | 39 | 324 | 4.3 | 8.7 | 0.00 | 0.02 | 0.00 | 82 | 1007.1 |
| 20260506010808 | 39 | 354 | 4.3 | 8.7 | 0.00 | 0.02 | 0.00 | 82 | 1007.0 |
| 20260506010308 | 39 | 300 | 3.5 | 8.7 | 0.00 | 0.02 | 0.00 | 82 | 1006.9 |
| 20260506005808 | 39 | 345 | 3.5 | 9.6 | 0.00 | 0.02 | 0.00 | 82 | 1006.7 |
| 20260506005532 | 39 | 340 | 5.2 | 9.6 | 0.00 | 0.03 | 0.00 | 82 | 1006.7 |
| 20260506005035 | 39 | 326 | 3.5 | 8.7 | 0.00 | 0.03 | 0.00 | 82 | 1006.6 |
| 20260506004307 | 39 | 336 | 3.5 | 7.8 | 0.00 | 0.04 | 0.00 | 82 | 1006.6 |
| 20260506003807 | 39 | 290 | 2.6 | 6.1 | 0.00 | 0.05 | 0.00 | 82 | 1006.6 |
| 20260506003302 | 39 | 30 | 3.5 | 8.7 | 0.00 | 0.05 | 0.00 | 82 | 1006.5 |
| 20260506002801 | 40 | 2 | 2.6 | 8.7 | 0.00 | 0.06 | 0.00 | 82 | 1006.5 |
| 20260506002259 | 40 | 330 | 3.5 | 7.8 | 0.00 | 0.06 | 0.00 | 81 | 1006.5 |
| 20260506001756 | 40 | 353 | 3.5 | 9.6 | 0.00 | 0.07 | 0.00 | 81 | 1006.5 |
| 20260506001259 | 40 | 341 | 4.3 | 9.6 | 0.00 | 0.07 | 0.00 | 81 | 1006.5 |
| 20260506000754 | 40 | 344 | 3.5 | 7.8 | 0.00 | 0.08 | 0.00 | 81 | 1006.4 |
| 20260506000257 | 40 | 340 | 3.5 | 5.2 | 0.00 | 0.09 | 0.00 | 81 | 1006.3 |
| 20260505235750 | 40 | 327 | 2.6 | 6.1 | 0.00 | 0.11 | 0.00 | 81 | 1006.2 |
| 20260505235250 | 41 | 348 | 2.6 | 7.8 | 0.00 | 0.13 | 0.00 | 81 | 1006.2 |
| 20260505234751 | 41 | 14 | 4.3 | 7.8 | 0.00 | 0.16 | 0.00 | 80 | 1006.2 |
| 20260505234518 | 41 | 48 | 3.5 | 6.1 | 0.00 | 0.16 | 0.00 | 80 | 1006.1 |
| 20260505233750 | 41 | 347 | 2.6 | 7.8 | 0.00 | 0.16 | 0.00 | 80 | 1006.2 |
| 20260505233249 | 42 | 300 | 2.6 | 7.8 | 0.00 | 0.16 | 0.00 | 79 | 1006.0 |
| 20260505232750 | 42 | 319 | 2.6 | 7.8 | 0.00 | 0.16 | 0.00 | 79 | 1006.0 |
| 20260505232516 | 42 | 334 | 2.6 | 6.1 | 0.00 | 0.16 | 0.00 | 79 | 1005.9 |
| 20260505231749 | 42 | 7 | 1.7 | 6.1 | 0.00 | 0.16 | 0.00 | 79 | 1006.0 |
| 20260505231249 | 42 | 358 | 1.7 | 7.8 | 0.00 | 0.17 | 0.00 | 78 | 1005.9 |
| 20260505230749 | 42 | 25 | 2.6 | 7.8 | 0.00 | 0.17 | 0.00 | 77 | 1005.9 |
| 20260505230249 | 43 | 25 | 3.5 | 7.8 | 0.00 | 0.17 | 0.00 | 74 | 1005.8 |
| 20260505225748 | 44 | 25 | 1.7 | 6.1 | 0.00 | 0.17 | 0.00 | 73 | 1005.7 |
| 20260505225248 | 44 | 17 | 1.7 | 13.0 | 0.00 | 0.17 | 0.00 | 71 | 1005.8 |
| 20260505224748 | 45 | 333 | 4.3 | 13.0 | 0.00 | 0.17 | 0.00 | 68 | 1005.6 |
| 20260505224248 | 46 | 2 | 3.5 | 9.6 | 0.00 | 0.17 | 0.00 | 66 | 1005.6 |
| 20260505223748 | 46 | 25 | 5.2 | 9.6 | 0.00 | 0.17 | 0.00 | 64 | 1005.4 |
| 20260505223248 | 47 | 329 | 3.5 | 8.7 | 0.00 | 0.17 | 0.00 | 62 | 1005.5 |
| 20260505222748 | 48 | 329 | 3.5 | 8.7 | 0.00 | 0.17 | 0.00 | 59 | 1005.5 |
| 20260505222516 | 50 | 351 | 3.5 | 13.0 | 0.00 | 0.17 | 0.00 | 53 | 1005.3 |
| 20260505221748 | 53 | 337 | 4.3 | 16.5 | 0.00 | 0.17 | 0.00 | 42 | 1005.3 |
| 20260505221247 | 54 | 282 | 8.7 | 16.5 | 0.00 | 0.17 | 0.00 | 35 | 1005.1 |
| 20260505220747 | 54 | 293 | 5.2 | 11.3 | 0.00 | 0.17 | 0.00 | 36 | 1005.1 |
| 20260505220248 | 54 | 322 | 7.0 | 16.5 | 0.00 | 0.17 | 0.00 | 36 | 1005.0 |
| 20260505215746 | 54 | 295 | 8.7 | 16.5 | 0.00 | 0.17 | 0.00 | 35 | 1005.0 |
| 20260505215247 | 54 | 290 | 7.0 | 15.6 | 0.00 | 0.17 | 0.00 | 36 | 1005.0 |
| 20260505215019 | 54 | 276 | 4.3 | 15.6 | 0.00 | 0.17 | 0.00 | 36 | 1004.9 |
| 20260505214246 | 53 | 264 | 7.0 | 15.6 | 0.00 | 0.17 | 0.00 | 36 | 1004.8 |
| 20260505213746 | 53 | 316 | 6.1 | 15.6 | 0.00 | 0.17 | 0.00 | 38 | 1004.9 |
| 20260505213247 | 53 | 314 | 7.8 | 18.2 | 0.00 | 0.17 | 0.00 | 37 | 1004.9 |
| 20260505212748 | 53 | 17 | 5.2 | 19.1 | 0.00 | 0.17 | 0.00 | 36 | 1004.9 |
| 20260505212247 | 53 | 2 | 6.1 | 19.1 | 0.00 | 0.17 | 0.00 | 35 | 1004.9 |
| 20260505211745 | 53 | 283 | 5.2 | 17.4 | 0.00 | 0.17 | 0.00 | 35 | 1004.9 |
| 20260505211245 | 53 | 309 | 8.7 | 17.4 | 0.00 | 0.17 | 0.00 | 37 | 1004.9 |
| 20260505211017 | 53 | 305 | 7.0 | 15.6 | 0.00 | 0.17 | 0.00 | 37 | 1004.9 |
| 20260505210509 | 53 | 296 | 9.6 | 17.4 | 0.00 | 0.17 | 0.00 | 36 | 1004.8 |
| 20260505210012 | 53 | 292 | 7.8 | 17.4 | 0.00 | 0.17 | 0.00 | 37 | 1004.9 |
| 20260505205245 | 53 | 254 | 7.0 | 14.8 | 0.00 | 0.17 | 0.00 | 37 | 1004.7 |
| 20260505204745 | 53 | 358 | 7.8 | 14.8 | 0.00 | 0.17 | 0.00 | 37 | 1004.7 |
| 20260505204245 | 53 | 274 | 4.3 | 18.2 | 0.00 | 0.17 | 0.00 | 37 | 1004.7 |
| 20260505203744 | 53 | 348 | 8.7 | 18.2 | 0.00 | 0.17 | 0.00 | 36 | 1004.5 |
| 20260505203516 | 53 | 323 | 7.0 | 14.8 | 0.00 | 0.17 | 0.00 | 36 | 1004.5 |
| 20260505202745 | 54 | 336 | 7.0 | 14.8 | 0.00 | 0.17 | 0.00 | 35 | 1004.4 |
| 20260505202244 | 54 | 283 | 7.0 | 19.1 | 0.00 | 0.17 | 0.00 | 38 | 1004.4 |
| 20260505201745 | 53 | 267 | 10.4 | 19.1 | 0.00 | 0.17 | 0.00 | 38 | 1004.3 |
| 20260505201512 | 53 | 340 | 8.7 | 17.4 | 0.00 | 0.17 | 0.00 | 36 | 1004.4 |
| 20260505200744 | 53 | 282 | 7.8 | 17.4 | 0.00 | 0.17 | 0.00 | 39 | 1004.3 |
| 20260505200244 | 53 | 300 | 7.0 | 13.9 | 0.00 | 0.17 | 0.00 | 38 | 1004.2 |
| 20260505195743 | 54 | 334 | 7.0 | 13.9 | 0.00 | 0.17 | 0.00 | 38 | 1004.1 |
| 20260505195243 | 55 | 350 | 7.0 | 14.8 | 0.00 | 0.17 | 0.00 | 39 | 1004.4 |
| 20260505194743 | 54 | 282 | 7.8 | 15.6 | 0.00 | 0.17 | 0.00 | 40 | 1004.3 |
| 20260505194243 | 54 | 350 | 8.7 | 15.6 | 0.00 | 0.17 | 0.00 | 37 | 1004.2 |
| 20260505193745 | 54 | 330 | 7.0 | 15.6 | 0.00 | 0.17 | 0.00 | 40 | 1004.1 |
| 20260505193240 | 54 | 286 | 6.1 | 16.5 | 0.00 | 0.17 | 0.00 | 39 | 1004.1 |
| 20260505192740 | 55 | 320 | 8.7 | 16.5 | 0.00 | 0.17 | 0.00 | 38 | 1004.1 |
| 20260505192240 | 55 | 276 | 7.8 | 16.5 | 0.00 | 0.17 | 0.00 | 42 | 1004.1 |
| 20260505191738 | 54 | 286 | 7.8 | 17.4 | 0.00 | 0.17 | 0.00 | 42 | 1004.1 |
| 20260505191510 | 55 | 323 | 8.7 | 17.4 | 0.00 | 0.17 | 0.00 | 43 | 1003.9 |
| 20260505190738 | 54 | 288 | 3.5 | 16.5 | 0.00 | 0.17 | 0.00 | 46 | 1003.8 |
| 20260505190239 | 53 | 290 | 7.0 | 16.5 | 0.00 | 0.17 | 0.00 | 47 | 1003.9 |
| 20260505185723 | 53 | 279 | 7.8 | 20.9 | 0.00 | 0.17 | 0.00 | 46 | 1003.9 |
| 20260505185223 | 53 | 275 | 11.3 | 20.9 | 0.00 | 0.17 | 0.00 | 47 | 1003.8 |
| 20260505184722 | 54 | 298 | 7.8 | 15.6 | 0.00 | 0.17 | 0.00 | 47 | 1003.8 |
| 20260505184216 | 53 | 275 | 5.2 | 13.0 | 0.00 | 0.17 | 0.00 | 52 | 1003.7 |
| 20260505183717 | 49 | 307 | 3.5 | 13.0 | 0.00 | 0.17 | 0.00 | 62 | 1003.4 |
| 20260505183217 | 47 | 0 | 3.5 | 8.7 | 0.00 | 0.17 | 0.00 | 65 | 1003.5 |
| 20260505182716 | 46 | 19 | 3.5 | 7.8 | 0.00 | 0.17 | 0.00 | 69 | 1003.4 |
| 20260505182218 | 45 | 351 | 1.7 | 7.8 | 0.00 | 0.17 | 0.00 | 67 | 1003.8 |
| 20260505181714 | 46 | 25 | 3.5 | 9.6 | 0.00 | 0.17 | 0.00 | 68 | 1003.5 |
| 20260505181214 | 46 | 358 | 2.6 | 9.6 | 0.00 | 0.17 | 0.00 | 68 | 1003.8 |
| 20260505180715 | 46 | 24 | 2.6 | 17.4 | 0.00 | 0.17 | 0.00 | 68 | 1003.7 |
| 20260505180219 | 45 | 21 | 6.1 | 17.4 | 0.00 | 0.17 | 0.00 | 69 | 1003.4 |
| 20260505175748 | 45 | 14 | 5.2 | 12.2 | 0.00 | 0.17 | 0.00 | 69 | 1003.5 |
| 20260505175020 | 45 | 341 | 5.2 | 12.2 | 0.00 | 0.17 | 0.00 | 71 | 1003.7 |
| 20260505174746 | 45 | 14 | 2.6 | 9.6 | 0.00 | 0.17 | 0.00 | 71 | 1003.4 |
| 20260505174019 | 45 | 351 | 4.3 | 8.7 | 0.00 | 0.17 | 0.00 | 72 | 1003.5 |
| 20260505173519 | 44 | 0 | 2.6 | 8.7 | 0.00 | 0.17 | 0.00 | 71 | 1003.7 |
| 20260505173016 | 45 | 340 | 2.6 | 8.7 | 0.00 | 0.17 | 0.00 | 73 | 1003.7 |
| 20260505172518 | 45 | 333 | 3.5 | 9.6 | 0.00 | 0.17 | 0.00 | 71 | 1003.7 |
| 20260505172015 | 45 | 355 | 3.5 | 9.6 | 0.00 | 0.17 | 0.00 | 74 | 1003.5 |
| 20260505171513 | 44 | 288 | 3.5 | 8.7 | 0.00 | 0.17 | 0.00 | 72 | 1003.8 |
| 20260505171012 | 44 | 42 | 3.5 | 8.7 | 0.00 | 0.17 | 0.00 | 71 | 1003.7 |
| 20260505170513 | 44 | 358 | 3.5 | 8.7 | 0.00 | 0.17 | 0.00 | 72 | 1003.7 |
| 20260505170015 | 44 | 357 | 4.3 | 9.6 | 0.00 | 0.17 | 0.00 | 73 | 1003.5 |
| 20260505165511 | 43 | 69 | 3.5 | 10.4 | 0.00 | 0.17 | 0.00 | 72 | 1003.7 |
| 20260505165009 | 44 | 334 | 4.3 | 10.4 | 0.00 | 0.17 | 0.00 | 72 | 1003.7 |
| 20260505164511 | 44 | 314 | 3.5 | 13.0 | 0.00 | 0.17 | 0.00 | 72 | 1003.8 |
| 20260505164010 | 44 | 355 | 3.5 | 13.0 | 0.00 | 0.17 | 0.00 | 71 | 1003.5 |
| 20260505163507 | 44 | 250 | 5.2 | 10.4 | 0.00 | 0.17 | 0.00 | 70 | 1003.4 |
| 20260505163009 | 45 | 329 | 5.2 | 11.3 | 0.00 | 0.17 | 0.00 | 68 | 1003.4 |
| 20260505162505 | 46 | 327 | 6.1 | 11.3 | 0.00 | 0.17 | 0.00 | 63 | 1003.5 |
| 20260505162247 | 48 | 302 | 3.5 | 13.0 | 0.00 | 0.17 | 0.00 | 60 | 1003.4 |
| 20260505161505 | 49 | 357 | 5.2 | 13.0 | 0.00 | 0.17 | 0.00 | 55 | 1003.2 |
| 20260505161006 | 49 | 347 | 7.0 | 13.0 | 0.00 | 0.17 | 0.00 | 58 | 1003.3 |
| 20260505160732 | 48 | 343 | 4.3 | 13.0 | 0.00 | 0.17 | 0.00 | 56 | 1003.5 |
| 20260505153002 | 47 | 257 | 5.2 | 14.8 | 0.00 | 0.17 | 0.00 | 58 | 1003.3 |
| 20260505152502 | 47 | 286 | 7.0 | 14.8 | 0.00 | 0.17 | 0.00 | 58 | 1003.3 |
| 20260505152004 | 47 | 290 | 6.1 | 13.0 | 0.00 | 0.17 | 0.00 | 65 | 1003.4 |
| 20260505151502 | 47 | 265 | 7.0 | 13.9 | 0.00 | 0.17 | 0.00 | 66 | 1003.4 |
| 20260505151003 | 47 | 330 | 4.3 | 13.9 | 0.00 | 0.17 | 0.00 | 67 | 1003.2 |
| 20260505150502 | 47 | 344 | 6.1 | 12.2 | 0.00 | 0.17 | 0.00 | 68 | 1003.2 |
| 20260505150223 | 46 | 285 | 7.0 | 12.2 | 0.00 | 0.17 | 0.00 | 70 | 1003.2 |